Datetime,EastMidlands,SouthWales,SouthWest,WestMidlands
2022-11-25 00:00:00,2756.03498,1049.71962,1220.829,2478.3858800000003
2022-11-25 00:05:00,2758.105925,1061.37536,1254.44824,2478.4249999999997
2022-11-25 00:10:00,2759.5947,1052.68802,1269.8135399999999,2483.2725
2022-11-25 00:15:00,2741.30454,1060.3280200000002,1262.72262,2476.54008
2022-11-25 00:20:00,2722.9253200000003,1058.4424,1261.8695400000001,2472.67252
2022-11-25 00:25:00,2725.1029,1054.53476,1260.8469799999998,2481.60416
2022-11-25 00:30:00,2776.9856166666664,1042.795825,1271.6105400000001,2512.01998
2022-11-25 00:35:00,2806.79246,1036.7538166666666,1284.5585999999998,2535.44585
2022-11-25 00:40:00,2818.95686,1057.1011199999998,1288.67754,2555.327783333333
2022-11-25 00:45:00,2817.33468,1048.51442,1286.74628,2561.82832
2022-11-25 00:50:00,2812.74948,1043.06788,1280.45488,2555.41636
2022-11-25 00:55:00,2802.87482,1042.78782,1272.01646,2554.0924800000003
2022-11-25 01:00:00,2808.09125,1052.10198,1271.17284,2556.05998
2022-11-25 01:05:00,2796.3894999999998,1056.8186,1272.1681199999998,2552.5491599999996
2022-11-25 01:10:00,2785.44006,1056.28858,1260.74146,2543.90586
2022-11-25 01:15:00,2795.0788199999997,1071.42354,1253.3019,2533.1983
2022-11-25 01:20:00,2782.1935000000003,1063.9817200000002,1244.3506999999997,2522.19084
2022-11-25 01:25:00,2764.80188,1035.8287919999998,1241.29896,2524.1158800000003
2022-11-25 01:30:00,2763.47536,1021.2244700000001,1234.58246,2539.5358
2022-11-25 01:35:00,2761.80418,1012.9111939999999,1225.9968999999999,2534.0317
2022-11-25 01:40:00,2751.01638,1048.5438,1221.6839599999998,2526.400975
2022-11-25 01:45:00,2743.12568,1041.650828,1214.7716800000003,2528.374283333333
2022-11-25 01:50:00,2735.44596,985.5627179999999,1211.0112400000003,2521.78168
2022-11-25 01:55:00,2728.59018,969.0330879999999,1212.52176,2515.4176500000003
2022-11-25 02:00:00,2746.49216,972.2599839999999,1218.99732,2498.6535
2022-11-25 02:05:00,2741.50796,960.6267240000001,1217.8391,2488.5187833333334
2022-11-25 02:10:00,2734.07182,978.8794899999999,1214.84248,2482.1708200000003
2022-11-25 02:15:00,2731.68194,1022.27883,1210.92036,2480.4033000000004
2022-11-25 02:20:00,2731.94442,1013.278544,1205.8217,2476.0708
2022-11-25 02:25:00,2725.6595,1021.4298719999999,1198.8970199999999,2472.7631333333334
2022-11-25 02:30:00,2715.89738,1000.208166,1195.61214,2465.82672
2022-11-25 02:35:00,2707.86258,1004.231135,1190.8567000000003,2458.14008
2022-11-25 02:40:00,2709.50216,995.2951499999999,1189.8124599999999,2449.5825
2022-11-25 02:45:00,2700.32512,989.375742,1182.01988,2455.00918
2022-11-25 02:50:00,2688.3358799999996,987.6233,1176.80665,2448.98996
2022-11-25 02:55:00,2676.62206,984.27814,1170.35415,2423.72598
2022-11-25 03:00:00,2664.2464200000004,1000.24056,1179.71344,2421.77752
2022-11-25 03:05:00,2659.0836200000003,989.846228,1178.9981599999999,2421.8908
2022-11-25 03:10:00,2644.2808400000004,964.54305,1173.89108,2416.25746
2022-11-25 03:15:00,2634.5991200000003,946.61356,1171.0173399999999,2414.8258
2022-11-25 03:20:00,2627.14805,954.5556839999999,1162.2041399999998,2408.9574799999996
2022-11-25 03:25:00,2628.89615,961.8521920000001,1161.18314,2407.2191799999996
2022-11-25 03:30:00,2626.41752,949.8524199999999,1167.69328,2403.49832
2022-11-25 03:35:00,2621.64252,943.82868,1155.92888,2393.69918
2022-11-25 03:40:00,2617.69418,950.9269179999999,1149.0844599999998,2385.04914
2022-11-25 03:45:00,2612.9532,977.709088,1139.4949000000001,2387.9416599999995
2022-11-25 03:50:00,2621.43148,982.8689,1142.1593799999998,2384.6683599999997
2022-11-25 03:55:00,2621.53686,982.52914,1144.54542,2378.2733
2022-11-25 04:00:00,2626.08314,955.2418439999999,1135.90598,2356.3242600000003
2022-11-25 04:05:00,2623.51436,948.1952475,1137.8088400000001,2365.49334
2022-11-25 04:10:00,2622.120425,952.8966266666666,1135.98562,2371.22086
2022-11-25 04:15:00,2609.288016666667,945.7373880000001,1118.29522,2369.251025
2022-11-25 04:20:00,2593.57962,951.1528679999999,1115.67286,2365.865933333333
2022-11-25 04:25:00,2579.5258000000003,954.2787099999999,1127.4866,2369.50586
2022-11-25 04:30:00,2592.817,943.679025,1119.17854,2367.5458399999998
2022-11-25 04:35:00,2596.0048,957.259185,1118.0450799999999,2365.98002
2022-11-25 04:40:00,2596.00424,948.4347140000002,1115.78842,2366.41418
2022-11-25 04:45:00,2595.54612,918.920692,1117.83282,2380.48158
2022-11-25 04:50:00,2612.8723600000003,923.4490480000001,1115.6645199999998,2386.97584
2022-11-25 04:55:00,2624.61566,918.3768900000001,1118.08782,2382.9408799999997
2022-11-25 05:00:00,2636.9633000000003,918.7390325,1122.33048,2388.4174599999997
2022-11-25 05:05:00,2643.5983,943.88688,1127.96472,2411.9083400000004
2022-11-25 05:10:00,2644.60358,929.694226,1138.07922,2428.081275
2022-11-25 05:15:00,2643.4588400000002,940.7737140000002,1145.5445,2430.9097500000003
2022-11-25 05:20:00,2642.26276,943.39426,1137.8672,2422.8442
2022-11-25 05:25:00,2633.94612,972.39581,1135.88166,2433.17836
2022-11-25 05:30:00,2654.5182000000004,986.283648,1139.9719,2440.4908600000003
2022-11-25 05:35:00,2676.1946000000003,957.695406,1154.6169599999998,2456.52168
2022-11-25 05:40:00,2696.20694,951.5866239999999,1165.1197,2479.23664
2022-11-25 05:45:00,2732.13266,974.4181060000001,1175.11332,2499.2525
2022-11-25 05:50:00,2767.89536,988.9316359999999,1187.92132,2522.9474999999998
2022-11-25 05:55:00,2796.0929,997.7571599999999,1201.74566,2537.79895
2022-11-25 06:00:00,2832.37314,1013.727715,1233.5732249999999,2590.73088
2022-11-25 06:05:00,2879.346633333334,1031.2527966666667,1261.4328800000003,2630.71668
2022-11-25 06:10:00,2930.45568,1049.15582,1279.8720666666668,2663.05084
2022-11-25 06:15:00,2959.64968,1061.96692,1297.8481000000002,2704.4791833333334
2022-11-25 06:20:00,2991.48646,1070.1770199999999,1315.16636,2738.14326
2022-11-25 06:25:00,3019.75678,1088.038225,1327.73942,2773.16912
2022-11-25 06:30:00,3044.09355,1103.8921666666665,1348.32632,2801.80625
2022-11-25 06:35:00,3075.53266,1114.98168,1375.9532000000002,2826.7359000000006
2022-11-25 06:40:00,3108.5002333333337,1127.45084,1397.1117,2855.284716666667
2022-11-25 06:45:00,3133.7943400000004,1133.2961200000002,1424.65554,2881.7141
2022-11-25 06:50:00,3159.2879599999997,1167.8539399999997,1450.3326399999999,2920.38164
2022-11-25 06:55:00,3154.5451199999998,1208.0101,1463.48408,2945.097925
2022-11-25 07:00:00,3176.6983,1245.7743,1464.8326000000002,3028.8242833333334
2022-11-25 07:05:00,3217.3999666666664,1271.6381399999998,1491.9777399999998,3095.411475
2022-11-25 07:10:00,3282.32722,1303.37942,1517.3228400000003,3142.7785
2022-11-25 07:15:00,3312.7590000000005,1321.1837200000002,1534.3584999999998,3176.0742000000005
2022-11-25 07:20:00,3323.8571199999997,1307.726,1543.467925,3211.175
2022-11-25 07:25:00,3340.3116800000003,1310.57508,1554.8455833333335,3215.47254
2022-11-25 07:30:00,3335.096,1311.61624,1563.98058,3185.2699999999995
2022-11-25 07:35:00,3358.7655199999995,1307.03806,1575.20326,3203.13508
2022-11-25 07:40:00,3363.8830000000003,1331.0161600000001,1592.4878,3226.58125
2022-11-25 07:45:00,3375.0914599999996,1340.5654,1613.7507400000002,3223.7791666666667
2022-11-25 07:50:00,3382.4661,1348.613275,1616.4634999999998,3231.9649999999997
2022-11-25 07:55:00,3393.5650200000005,1356.1051833333333,1617.3630799999999,3235.762525
2022-11-25 08:00:00,3435.0802000000003,1381.977325,1625.2258,3260.632633333333
2022-11-25 08:05:00,3461.1273200000005,1363.5514,1632.6429199999998,3277.68998
2022-11-25 08:10:00,3475.42486,1370.3260999999998,1640.3804499999999,3294.115625
2022-11-25 08:15:00,3476.4631199999994,1387.97362,1640.8307499999999,3309.7678333333333
2022-11-25 08:20:00,3494.1488400000003,1388.22912,1642.17156,3317.625
2022-11-25 08:25:00,3504.13604,1409.24306,1648.9459199999997,3330.32395
2022-11-25 08:30:00,3515.0341,1386.49894,1646.00276,3327.1907999999994
2022-11-25 08:35:00,3521.11032,1402.32738,1651.9176599999998,3338.9849999999997
2022-11-25 08:40:00,3519.13254,1410.67955,1648.8303199999998,3349.4312166666664
2022-11-25 08:45:00,3535.6973,1411.4025000000001,1641.99736,3353.1624600000005
2022-11-25 08:50:00,3537.7362200000002,1408.0809399999998,1642.6308199999999,3355.0932999999995
2022-11-25 08:55:00,3531.1680199999996,1390.6595999999997,1640.2427799999998,3369.85416
2022-11-25 09:00:00,3544.4103600000003,1413.2439249999998,1635.4358,3368.83435
2022-11-25 09:05:00,3538.1943400000005,1424.6974666666665,1635.62036,3393.307633333334
2022-11-25 09:10:00,3521.5416600000003,1451.4801400000001,1628.68946,3399.96045
2022-11-25 09:15:00,3503.9037399999993,1441.5202,1618.9113399999999,3397.579833333333
2022-11-25 09:20:00,3509.09984,1434.4855599999999,1611.67886,3408.43078
2022-11-25 09:25:00,3486.4150799999998,1414.8851600000003,1598.97386,3406.56414
2022-11-25 09:30:00,3463.65982,1429.7408799999998,1589.7372,3438.34084
2022-11-25 09:35:00,3451.88364,1442.7751,1583.85852,3455.21332
2022-11-25 09:40:00,3452.3641799999996,1447.6322399999997,1569.07218,3452.27166
2022-11-25 09:45:00,3436.80268,1447.7553,1563.85794,3430.311375
2022-11-25 09:50:00,3434.2103199999997,1453.0457199999998,1564.73584,3431.9173333333333
2022-11-25 09:55:00,3428.4421199999997,1451.70126,1556.4256799999998,3446.8625
2022-11-25 10:00:00,3407.98666,1424.52026,1540.9494,3391.41752
2022-11-25 10:05:00,3390.8902399999997,1425.90845,1528.16652,3368.95084
2022-11-25 10:10:00,3378.3434799999995,1404.7300333333333,1505.5175399999998,3360.88225
2022-11-25 10:15:00,3370.1910000000003,1384.7562400000002,1493.6835400000002,3355.326383333333
2022-11-25 10:20:00,3371.31006,1390.6311799999999,1495.7072,3358.2741199999996
2022-11-25 10:25:00,3372.1611399999992,1387.57818,1486.61142,3359.57334
2022-11-25 10:30:00,3368.0148200000003,1380.5755199999999,1474.30426,3348.68754
2022-11-25 10:35:00,3369.6410600000004,1375.99146,1469.8163749999999,3342.6308
2022-11-25 10:40:00,3371.7739800000004,1355.8770600000003,1472.3413166666667,3343.6641799999998
2022-11-25 10:45:00,3355.1967799999998,1358.19798,1466.7874,3331.8174800000006
2022-11-25 10:50:00,3353.1910000000003,1398.0377,1463.8825000000002,3330.73588
2022-11-25 10:55:00,3370.5196600000004,1406.37676,1463.8774,3320.1758199999995
2022-11-25 11:00:00,3375.4809799999994,1421.42398,1459.8651399999999,3329.52166
2022-11-25 11:05:00,3359.0343399999997,1399.5584999999999,1453.71738,3319.91996
2022-11-25 11:10:00,3353.4981799999996,1373.70984,1440.15494,3311.0408
2022-11-25 11:15:00,3348.80752,1385.3473800000002,1431.61446,3305.9879
2022-11-25 11:20:00,3333.446279999999,1378.4828600000003,1412.16624,3298.65582
2022-11-25 11:25:00,3344.3215599999994,1382.1166,1407.58972,3294.8399799999997
2022-11-25 11:30:00,3319.7686200000003,1389.039175,1406.6892599999999,3283.8733400000006
2022-11-25 11:35:00,3306.79484,1350.5547666666664,1416.4698799999999,3301.7503000000006
2022-11-25 11:40:00,3294.6505800000004,1325.6600999999998,1415.5337,3295.1308000000004
2022-11-25 11:45:00,3286.6159,1307.27566,1417.3413249999999,3283.25922
2022-11-25 11:50:00,3287.0481400000003,1301.1191199999998,1438.6602999999998,3275.67584
2022-11-25 11:55:00,3289.07166,1274.41012,1431.8608800000002,3274.99418
2022-11-25 12:00:00,3259.92696,1302.52106,1422.3061400000001,3250.16586
2022-11-25 12:05:00,3289.5703000000003,1310.71114,1424.5982800000002,3243.8812749999997
2022-11-25 12:10:00,3322.62515,1328.9738399999999,1426.9167599999998,3260.6187666666665
2022-11-25 12:15:00,3328.6947333333337,1360.2184,1427.6499800000001,3273.875
2022-11-25 12:20:00,3340.2242400000005,1382.3790199999999,1431.72846,3290.83252
2022-11-25 12:25:00,3322.13848,1369.80298,1420.72122,3272.3707999999997
2022-11-25 12:30:00,3303.23435,1330.73814,1413.679375,3256.45662
2022-11-25 12:35:00,3291.4083666666666,1333.0483799999997,1427.7333500000002,3250.1349999999998
2022-11-25 12:40:00,3272.56912,1348.11292,1423.12508,3244.21836
2022-11-25 12:45:00,3268.55086,1354.7005800000002,1415.06804,3232.935
2022-11-25 12:50:00,3263.89065,1347.26066,1420.47736,3228.86766
2022-11-25 12:55:00,3269.816666666667,1311.0870200000002,1419.20936,3211.61044
2022-11-25 13:00:00,3274.02698,1324.23656,1410.2382000000002,3174.86968
2022-11-25 13:05:00,3272.41802,1335.5154200000002,1412.42174,3175.14086
2022-11-25 13:10:00,3274.30815,1347.94182,1412.2,3171.7358
2022-11-25 13:15:00,3279.5952833333326,1331.4438999999998,1411.17678,3165.365
2022-11-25 13:20:00,3286.5257000000006,1337.24902,1404.22598,3160.2916400000004
2022-11-25 13:25:00,3276.2031199999997,1337.15774,1407.6586,3149.78852
2022-11-25 13:30:00,3281.2514,1345.35452,1410.8734,3165.95332
2022-11-25 13:35:00,3289.526425,1362.7640400000003,1420.11002,3165.74996
2022-11-25 13:40:00,3287.0870166666664,1362.7939,1423.7021200000001,3162.5197
2022-11-25 13:45:00,3281.8438199999996,1329.28594,1418.2167,3140.82748
2022-11-25 13:50:00,3276.0543399999997,1335.93112,1412.3548,3138.3671600000002
2022-11-25 13:55:00,3269.6122,1343.9615,1420.8203800000001,3131.51252
2022-11-25 14:00:00,3261.0659399999995,1345.84546,1430.5537799999997,3144.4650200000005
2022-11-25 14:05:00,3268.330175,1346.41322,1439.40925,3144.6333
2022-11-25 14:10:00,3271.5261166666664,1337.90728,1442.4840333333334,3137.93658
2022-11-25 14:15:00,3278.0489800000005,1326.9320999999998,1447.37222,3138.17004
2022-11-25 14:20:00,3291.76734,1323.8964199999998,1454.95748,3136.8158799999997
2022-11-25 14:25:00,3291.19412,1307.05706,1465.2431399999998,3132.69416
2022-11-25 14:30:00,3289.1003000000005,1291.10544,1465.79408,3111.43914
2022-11-25 14:35:00,3306.31614,1294.3138199999999,1475.16864,3117.8988600000002
2022-11-25 14:40:00,3302.72918,1293.558,1476.2755,3115.225975
2022-11-25 14:45:00,3283.1742000000004,1305.4350799999997,1474.33294,3108.72746
2022-11-25 14:50:00,3309.6336600000004,1336.0686,1489.7992600000002,3118.9430166666666
2022-11-25 14:55:00,3307.81854,1362.15742,1503.86148,3112.27744
2022-11-25 15:00:00,3321.1436200000003,1356.81852,1512.0109799999998,3110.5908599999993
2022-11-25 15:05:00,3321.8584,1359.6480999999999,1519.20642,3113.215
2022-11-25 15:10:00,3324.4706400000005,1359.03696,1529.25002,3111.38666
2022-11-25 15:15:00,3317.93866,1347.86214,1533.630275,3113.35998
2022-11-25 15:20:00,3350.1955399999997,1340.7021399999999,1542.8215666666667,3126.17336
2022-11-25 15:25:00,3364.39818,1326.1573199999998,1556.19408,3141.3075
2022-11-25 15:30:00,3372.2411999999995,1350.2452399999997,1563.3949399999997,3143.06498
2022-11-25 15:35:00,3397.31492,1363.6297,1576.0747600000002,3161.53004
2022-11-25 15:40:00,3418.14116,1361.92722,1585.578875,3176.04672
2022-11-25 15:45:00,3450.41748,1382.7293399999999,1604.2772833333336,3190.8316800000002
2022-11-25 15:50:00,3484.6630999999998,1388.7911199999999,1615.7097,3211.5450200000005
2022-11-25 15:55:00,3513.8827,1386.648225,1631.90976,3220.979175
2022-11-25 16:00:00,3525.2888000000007,1402.5187333333333,1655.7406,3266.241666666667
2022-11-25 16:05:00,3513.2259599999998,1431.28794,1676.6702000000002,3288.49836
2022-11-25 16:10:00,3540.2018199999998,1420.9547750000002,1685.55952,3290.9183199999998
2022-11-25 16:15:00,3572.9313799999995,1433.3716666666667,1702.0466199999998,3311.59504
2022-11-25 16:20:00,3618.11584,1445.4783,1723.75518,3344.5616600000003
2022-11-25 16:25:00,3648.634175,1463.50814,1742.1936999999998,3369.0683400000003
2022-11-25 16:30:00,3685.0009333333333,1471.4560399999998,1772.7610800000002,3411.006275
2022-11-25 16:35:00,3702.6426,1453.7055599999999,1794.4455000000003,3446.959683333333
2022-11-25 16:40:00,3683.0065600000003,1485.6379999999997,1816.53276,3452.94424
2022-11-25 16:45:00,3704.26134,1478.2048399999999,1836.3028000000002,3458.0000200000004
2022-11-25 16:50:00,3726.109375,1468.89998,1852.00686,3473.23252
2022-11-25 16:55:00,3726.2836,1474.9045199999998,1860.32726,3477.72246
2022-11-25 17:00:00,3730.7236599999997,1481.2127400000002,1866.0432,3483.90164
2022-11-25 17:05:00,3746.55836,1495.95228,1889.30436,3461.61668
2022-11-25 17:10:00,3739.0436999999997,1513.47886,1901.01188,3470.2650200000003
2022-11-25 17:15:00,3734.4498200000003,1512.434,1898.90598,3456.1198249999998
2022-11-25 17:20:00,3729.9058399999994,1491.5468400000002,1898.0348400000003,3459.486066666667
2022-11-25 17:25:00,3731.5589799999993,1474.1066,1894.1592,3472.2808399999994
2022-11-25 17:30:00,3725.5351600000004,1503.3135200000002,1894.42576,3463.30334
2022-11-25 17:35:00,3712.7813,1522.28825,1895.0277600000002,3475.39162
2022-11-25 17:40:00,3714.0387199999996,1509.63325,1896.97598,3480.52584
2022-11-25 17:45:00,3690.4071400000003,1477.7894199999998,1893.6906999999999,3470.4691
2022-11-25 17:50:00,3676.36812,1481.72734,1889.88828,3462.9358399999996
2022-11-25 17:55:00,3667.75648,1491.5395199999998,1885.9663400000002,3451.91662
2022-11-25 18:00:00,3697.5748399999998,1506.8590800000002,1887.1307800000002,3448.92918
2022-11-25 18:05:00,3678.53562,1483.08502,1885.4659,3454.7708
2022-11-25 18:10:00,3649.219,1468.8119199999999,1881.1684800000003,3445.96918
2022-11-25 18:15:00,3638.46886,1465.22488,1873.1502399999997,3435.1261000000004
2022-11-25 18:20:00,3627.31494,1499.8790199999999,1868.85878,3431.9131666666667
2022-11-25 18:25:00,3619.84976,1499.8618600000002,1860.21672,3421.74832
2022-11-25 18:30:00,3604.5152000000003,1502.25944,1850.58432,3381.8116999999997
2022-11-25 18:35:00,3596.49018,1496.0052799999999,1841.31236,3364.67838
2022-11-25 18:40:00,3571.7694600000004,1465.34208,1825.1902599999999,3349.41414
2022-11-25 18:45:00,3556.0891199999996,1474.96642,1813.9590199999998,3351.98998
2022-11-25 18:50:00,3543.7799800000003,1434.75648,1802.6413,3325.20078
2022-11-25 18:55:00,3511.0635199999997,1433.1321200000002,1784.0724199999997,3300.7791599999996
2022-11-25 19:00:00,3508.6369999999997,1437.07836,1773.9016199999999,3278.7
2022-11-25 19:05:00,3520.1803199999995,1430.7053799999999,1758.3052,3239.19372
2022-11-25 19:10:00,3486.7718800000002,1426.9861999999998,1744.7207600000002,3221.44816
2022-11-25 19:15:00,3453.325,1427.18162,1731.43752,3211.36664
2022-11-25 19:20:00,3432.98988,1407.3028,1717.7657599999998,3195.10082
2022-11-25 19:25:00,3410.5197399999997,1410.2796199999998,1700.8552,3181.4017200000003
2022-11-25 19:30:00,3397.06506,1393.88242,1670.0292000000002,3151.94084
2022-11-25 19:35:00,3394.4764800000003,1373.1970999999999,1662.0660400000002,3140.19166
2022-11-25 19:40:00,3378.39684,1368.36124,1655.8257600000002,3134.13778
2022-11-25 19:45:00,3396.7744999999995,1378.7568999999999,1657.43102,3146.85584
2022-11-25 19:50:00,3405.2740399999993,1383.7704666666666,1665.0945,3149.4605
2022-11-25 19:55:00,3373.38752,1373.04834,1647.6105,3123.86752
2022-11-25 20:00:00,3357.41262,1378.1533800000002,1630.21628,3085.67172
2022-11-25 20:05:00,3338.26112,1367.4323399999998,1614.3880199999999,3055.9567
2022-11-25 20:10:00,3303.55718,1338.97848,1597.0995200000002,3028.5766799999997
2022-11-25 20:15:00,3273.10052,1338.48918,1582.56428,3010.4925399999997
2022-11-25 20:20:00,3255.47898,1333.7023199999999,1567.70206,2991.2350199999996
2022-11-25 20:25:00,3217.6368599999996,1314.12924,1556.2433800000001,2975.66996
2022-11-25 20:30:00,3194.35164,1308.60142,1543.6911799999998,2960.4208000000003
2022-11-25 20:35:00,3182.66086,1317.6028800000001,1539.73156,2951.0368333333336
2022-11-25 20:40:00,3163.0487000000003,1297.8245200000001,1528.34636,2932.91668
2022-11-25 20:45:00,3146.6877200000004,1293.11222,1517.4724199999998,2925.95756
2022-11-25 20:50:00,3130.06738,1272.1240400000002,1493.81578,2922.1258800000005
2022-11-25 20:55:00,3164.72736,1276.57772,1490.9559199999999,2925.2516600000004
2022-11-25 21:00:00,3130.0328600000003,1272.21002,1481.8615000000002,2909.5266999999994
2022-11-25 21:05:00,3071.76502,1253.08376,1475.0711800000001,2896.96664
2022-11-25 21:10:00,3021.95062,1244.9151399999998,1467.1738,2886.8432999999995
2022-11-25 21:15:00,3006.59202,1242.9161,1451.6531,2870.0766399999998
2022-11-25 21:20:00,2984.3678600000003,1223.7327,1433.8219000000001,2865.73504
2022-11-25 21:25:00,2950.8093200000003,1187.92842,1421.49666,2851.27418
2022-11-25 21:30:00,2932.75814,1182.1239249999999,1412.86376,2829.7933599999997
2022-11-25 21:35:00,2917.9048,1198.9803833333335,1403.3985800000003,2818.0541399999997
2022-11-25 21:40:00,2903.43116,1197.5634599999998,1389.70818,2807.33162
2022-11-25 21:45:00,2895.62378,1194.6825199999998,1383.04246,2782.34412
2022-11-25 21:50:00,2877.7834599999996,1175.8813000000002,1372.6982400000002,2781.9891199999997
2022-11-25 21:55:00,2840.26836,1183.3563600000002,1360.1218199999998,2774.63498
2022-11-25 22:00:00,2847.22168,1172.8413,1350.17416,2747.7075
2022-11-25 22:05:00,2817.25134,1162.548775,1338.3016000000002,2733.24758
2022-11-25 22:10:00,2785.10412,1152.4176333333332,1328.79596,2717.21668
2022-11-25 22:15:00,2782.6551400000003,1152.28226,1317.6417800000002,2705.0343500000004
2022-11-25 22:20:00,2784.885,1141.8532799999998,1308.35438,2693.673666666667
2022-11-25 22:25:00,2770.8979799999997,1120.9629,1291.8080599999998,2669.3225599999996
2022-11-25 22:30:00,2772.0364799999998,1121.8291199999999,1280.0512599999997,2647.2050200000003
2022-11-25 22:35:00,2760.14234,1086.76594,1275.69256,2631.57246
2022-11-25 22:40:00,2724.02582,1062.93126,1267.5977799999998,2609.95074
2022-11-25 22:45:00,2693.2679,1050.9421200000002,1254.5320000000002,2593.48
2022-11-25 22:50:00,2679.29382,1050.64202,1244.92902,2587.36748
2022-11-25 22:55:00,2662.3055200000003,1044.87612,1243.4078,2597.73708
2022-11-25 23:00:00,2662.28814,1046.54574,1246.6764600000001,2574.4239000000002
2022-11-25 23:05:00,2637.29266,1041.8748600000001,1238.59804,2569.4058400000004
2022-11-25 23:10:00,2627.23314,1039.0067250000002,1228.17392,2560.46918
2022-11-25 23:15:00,2601.11312,1034.4406999999999,1220.47244,2540.5407800000003
2022-11-25 23:20:00,2598.2341800000004,1032.8961199999999,1216.0674999999999,2534.57166
2022-11-25 23:25:00,2578.3828999999996,1017.9689175,1207.87288,2522.99338
2022-11-25 23:30:00,2563.21962,992.9942833333331,1199.5101600000003,2511.4475599999996
2022-11-25 23:35:00,2548.18315,987.3840180000001,1192.4757,2500.43084
2022-11-25 23:40:00,2543.63275,994.234086,1192.4467000000002,2497.1166249999997
2022-11-25 23:45:00,2526.06848,1007.940508,1188.7290600000001,2489.9638833333333
2022-11-25 23:50:00,2514.3705199999995,1016.3670439999999,1186.8465,2476.45916
2022-11-25 23:55:00,2511.66536,1016.8731899999999,1183.8144750000001,2467.1858399999996
